Location: Cape Cod Imaging Station
(41.7417°N, 70.1583°W)
Time: 00:47:55
(UTC-05:00)

Hubble Space Telescope - Visible Passes

Search period start: 23 January 2018 00:00
Search period end: 02 February 2018 00:00
Orbit: 537 x 541 km, 28.5° (Epoch: 22 January)

Date Brightness Start Highest point End Pass type
(mag) Time Alt. Az. Time Alt. Az. Time Alt. Az.
24 Jan 3.3 18:48:42 10° S 18:49:22 10° S 18:49:22 10° S visible
25 Jan 3.2 18:37:45 10° SSW 18:39:10 11° S 18:39:46 11° SSE visible
26 Jan 3.2 18:27:05 10° SSW 18:28:45 12° S 18:30:09 11° SSE visible
27 Jan 3.2 18:16:32 10° SSW 18:18:22 13° S 18:20:12 10° SSE visible
28 Jan 3.3 18:06:05 10° SSW 18:07:58 13° S 18:09:51 10° SSE visible
29 Jan 3.3 17:55:44 10° SSW 17:57:34 13° S 17:59:24 10° SSE visible
30 Jan 3.4 17:45:28 10° SSW 17:47:11 12° S 17:48:53 10° SSE visible
31 Jan 3.5 17:35:19 10° SSW 17:36:47 12° S 17:38:14 10° SSE visible
01 Feb 3.6 17:25:23 10° SSW 17:26:22 11° S 17:27:21 10° S visible
